RH
42 33 28 27 22 20 20 21 20 19 20 22 22 24 27 32 38 43 45 45 39 26 18 9 8 16 21 17 39 26 14 14 18 19 23 29 31 26 22 24 28 25 27
50 36 29 27 28 21 20 20 19 20 21 22 24 26 29 32 36 37 40 42 37 29 20 10 7 13 16 17 26 19 24 15 14 15 18 24 34 25 22 27 27 30 29
58 45 29 29 27 26 23 21 17 17 19 21 24 29 34 38 44 49 46 45 34 28 19 9 7 8 14 20 15 20 28 16 13 16 21 26 23 18 28 33 31 25 27
60 54 41 27 27 28 25 23 20 16 18 23 25 28 36 44 50 56 50 42 34 26 18 8 7 11 16 16 18 25 23 14 15 16 21 24 20 26 28 28 25 27 25
60 57 50 34 30 34 33 25 21 18 24 23 26 36 34 49 50 50 46 40 29 23 16 8 8 9 16 18 22 24 18 26 27 27 30 31 36 38 26 23 21 20 20
67 61 55 42 37 34 33 30 27 39 48 46 44 37 36 34 37 35 33 28 23 18 12 8 8 10 13 16 17 15 24 32 32 39 41 34 31 27 25 25 23 21 19
72 69 61 47 46 42 44 37 36 33 40 43 38 39 40 37 30 26 23 17 17 14 9 8 9 11 12 14 14 22 26 32 36 39 34 30 32 35 30 26 26 22 20
70 74 69 59 50 55 57 49 32 35 31 33 32 32 29 25 16 19 17 11 13 9 8 8 9 11 12 12 19 27 26 28 32 34 37 36 32 32 28 31 31 22 22
57 62 70 67 67 59 67 61 43 33 29 26 23 17 16 14 14 17 14 10 9 9 8 12 18 12 13 14 25 27 27 27 28 28 27 27 34 41 43 33 29 26 22
53 57 60 66 73 70 64 68 63 46 31 26 24 22 18 18 17 17 10 8 9 13 18 18 20 17 15 19 28 26 27 27 24 23 19 33 44 44 36 31 25 22 22
48 55 59 66 72 79 78 69 68 66 57 43 26 17 18 18 17 16 9 8 9 18 19 22 22 21 22 27 28 28 25 21 21 26 26 44 45 37 33 27 23 22 22
33 41 48 63 74 83 85 87 74 70 67 61 47 28 18 19 16 10 8 8 16 18 18 25 25 21 23 21 26 28 23 21 28 31 37 45 37 34 26 25 23 24 27
23 30 40 42 61 78 93 91 93 81 73 70 62 49 32 16 11 10 9 9 17 19 22 26 22 24 20 23 25 25 24 23 31 40 42 42 36 33 25 25 27 31 32
16 19 20 30 38 52 69 85 93 94 89 78 73 66 53 36 14 11 10 10 17 18 20 21 19 25 21 25 26 24 26 23 30 36 38 39 36 33 28 29 32 34 35
13 15 17 17 21 29 35 57 82 88 91 93 88 79 70 59 40 15 11 11 16 19 19 20 21 22 22 25 26 24 23 25 25 27 31 37 34 31 32 34 34 36 36
15 14 14 16 16 15 22 27 49 70 88 92 90 94 85 74 63 46 19 12 15 18 18 17 20 22 22 24 25 24 24 26 27 26 27 31 37 38 37 38 37 37 37
18 17 16 14 13 12 13 16 22 44 65 88 83 84 90 90 77 66 47 23 16 16 17 19 19 18 22 24 25 25 25 26 27 26 26 28 38 41 39 36 37 37 37
19 18 17 18 16 13 11 12 15 22 40 58 76 83 86 94 92 81 63 51 31 20 18 19 18 20 22 26 28 27 27 28 29 28 27 27 28 32 31 35 36 37 38
20 19 19 18 17 18 16 13 14 17 27 40 53 90 93 88 94 94 82 68 54 39 22 19 22 24 25 28 29 30 30 31 31 29 27 25 25 26 24 25 27 30 30
22 20 18 18 17 17 19 17 15 15 19 28 40 55 88 89 93 92 90 82 71 60 41 27 24 27 29 28 31 34 36 36 36 33 32 26 24 20 19 22 24 26 27
22 20 19 17 16 16 18 21 19 17 16 19 26 40 52 73 99 92 94 97 87 77 62 47 37 29 29 31 35 38 39 39 41 42 37 29 26 20 18 19 22 24 26
23 21 19 19 19 20 20 21 20 20 22 22 22 27 44 51 89 94 95 97 93 83 79 65 49 44 37 35 35 38 41 40 38 37 35 30 25 23 21 21 21 22 24
25 24 21 21 23 23 23 24 24 24 27 27 26 26 27 32 46 76 84 98 95 87 80 73 63 54 45 43 38 34 37 36 38 37 34 32 30 27 24 22 23 24 27
27 27 26 26 25 26 27 27 29 28 27 29 32 32 32 52 45 53 81 81 87 95 90 90 78 66 58 50 48 43 35 31 34 34 34 32 30 27 25 25 26 28 28
31 31 30 30 29 28 29 30 31 33 35 35 36 35 36 45 46 47 47 82 91 91 93 93 93 79 71 63 55 46 44 36 31 30 31 32 31 29 29 29 30 31 31
37 36 35 34 34 34 32 32 33 37 41 42 42 42 44 45 46 50 62 61 83 93 90 94 94 90 79 75 64 56 50 47 37 33 31 31 32 31 31 32 34 38 41